Weather History for NZCH - November, 2013

Change the Weather History Date:

Tuesday, November 5, 2013

  Actual Average Record
Temperature  
Mean Temperature 60 °F -  
Max Temperature 75 °F 62 °F 86 °F (2005)
Min Temperature 44 °F 43 °F 32 °F (2001)
Degree Days  
Heating Degree Days 6    
Growing Degree Days 10 (Base 50)    
Moisture  
Dew Point 46 °F    
Average Humidity 65    
Maximum Humidity 93    
Minimum Humidity 33    
Precipitation  
Precipitation 0.00 in - - ()
Sea Level Pressure  
Sea Level Pressure 29.89 in    
Wind  
Wind Speed 4 mph ()    
Max Wind Speed 14 mph    
Max Gust Speed -    
Visibility 6.2 miles    
Events      
Averages and records for this station are not official NWS values.
T = Trace of Precipitation, MM = Missing Value Source: Averaged Metar Reports

Daily Weather History Graph

Daily Weather History Graph

Search for Another Location

Airport or City:

Trip Planner

Search our weather history database for the weather conditions in past years. The results will help you decide how hot, cold, wet, or windy it might be!

Date:

Astronomy

Nov. 05, 2013 Rise Set
Actual Time 6:07 AM NZDT 8:20 PM NZDT
Civil Twilight 5:35 AM NZDT 8:52 PM NZDT
Nautical Twilight 4:56 AM NZDT 9:31 PM NZDT
Astronomical Twilight 4:13 AM NZDT 10:14 PM NZDT
Moon 7:09 AM NZDT (11/5) 10:11 PM NZDT (11/5)
Length of Visible Light 15h 16m
Length of Day
14h 13m
Waxing Crescent, 3% of the Moon is Illuminated
Nov 5
Waxing Crescent
Nov 10
First Quarter
Nov 18
Full
Nov 26
Last Quarter
Dec 3
New

Hourly Weather History & Observations

Time (NZDT) Temp. Windchill Dew Point Humidity Pressure Visibility Wind Dir Wind Speed Gust Speed Precip Events Conditions
12:00 AM 53.6 °F - 46.4 °F 77% 29.83 in 6.2 mi Calm Calm - N/A   Unknown
12:30 AM 51.8 °F - 48.2 °F 88% 29.83 in 6.2 mi East 2.3 mph - N/A   Unknown
1:00 AM 51.8 °F - 48.2 °F 88% 29.83 in 6.2 mi South 1.2 mph - N/A   Unknown
1:30 AM 50.0 °F - 46.4 °F 87% 29.83 in 6.2 mi NE 1.2 mph - N/A   Unknown
2:00 AM 50.0 °F - 46.4 °F 87% 29.83 in 6.2 mi NNE 2.3 mph - N/A   Unknown
2:30 AM 44.6 °F - 41.0 °F 87% 29.83 in 6.2 mi NNW 2.3 mph - N/A   Unknown
3:00 AM 44.6 °F - 41.0 °F 87% 29.83 in 6.2 mi North 1.2 mph - N/A   Unknown
3:30 AM 44.6 °F 43.1 °F 42.8 °F 93% 29.83 in 6.2 mi NW 3.5 mph - N/A   Unknown
4:00 AM 46.4 °F 45.2 °F 42.8 °F 87% 29.80 in 6.2 mi NE 3.5 mph - N/A   Unknown
4:30 AM 44.6 °F 43.1 °F 42.8 °F 93% 29.80 in 6.2 mi NE 3.5 mph - N/A   Unknown
5:00 AM 44.6 °F 42.2 °F 41.0 °F 87% 29.80 in 6.2 mi North 4.6 mph - N/A   Unknown
5:30 AM 44.6 °F - 39.2 °F 81% 29.83 in 6.2 mi NW 2.3 mph - N/A   Unknown
6:00 AM 46.4 °F - 41.0 °F 81% 29.83 in 6.2 mi NNE 1.2 mph - N/A   Unknown
6:30 AM 46.4 °F 45.2 °F 41.0 °F 81% 29.83 in 6.2 mi NNW 3.5 mph - N/A   Unknown
7:00 AM 48.2 °F - 42.8 °F 82% 29.83 in 6.2 mi SW 3.5 mph - N/A   Unknown
7:30 AM 53.6 °F - 44.6 °F 72% 29.83 in 6.2 mi WNW 3.5 mph - N/A   Unknown
8:00 AM 57.2 °F - 46.4 °F 67% 29.86 in 6.2 mi ENE 1.2 mph - N/A   Unknown
8:30 AM 62.6 °F - 44.6 °F 52% 29.86 in 6.2 mi NNW 3.5 mph - N/A   Unknown
9:00 AM 64.4 °F - 44.6 °F 49% 29.86 in 6.2 mi NNW 5.8 mph - N/A   Unknown
9:30 AM 66.2 °F - 46.4 °F 49% 29.86 in 6.2 mi NNE 2.3 mph - N/A   Unknown
10:00 AM 68.0 °F - 46.4 °F 46% 29.86 in 6.2 mi North 5.8 mph - N/A   Unknown
10:30 AM 68.0 °F - 44.6 °F 43% 29.86 in 6.2 mi NNW 6.9 mph - N/A   Unknown
11:00 AM 68.0 °F - 46.4 °F 46% 29.86 in 6.2 mi NNW 9.2 mph - N/A   Unknown
11:30 AM 68.0 °F - 44.6 °F 43% 29.86 in 6.2 mi WNW 9.2 mph - N/A   Unknown
12:00 PM 68.0 °F - 44.6 °F 43% 29.89 in 6.2 mi NW 10.4 mph - N/A   Unknown
12:30 PM 73.4 °F - 46.4 °F 38% 29.86 in 6.2 mi NW 12.7 mph - N/A   Unknown
1:00 PM 71.6 °F - 44.6 °F 38% 29.86 in 6.2 mi NW 11.5 mph - N/A   Unknown
1:30 PM 69.8 °F - 44.6 °F 40% 29.86 in 6.2 mi WNW 9.2 mph - N/A   Unknown
2:00 PM 73.4 °F - 44.6 °F 36% 29.86 in 6.2 mi WNW 6.9 mph - N/A   Unknown
2:30 PM 73.4 °F - 46.4 °F 38% 29.86 in 6.2 mi WNW 6.9 mph - N/A   Unknown
3:00 PM 73.4 °F - 44.6 °F 36% 29.86 in 6.2 mi West 5.8 mph - N/A   Unknown
3:30 PM 75.2 °F - 48.2 °F 38% 29.86 in 6.2 mi West 3.5 mph - N/A   Unknown
4:00 PM 73.4 °F - 42.8 °F 33% 29.86 in 6.2 mi WSW 10.4 mph - N/A   Unknown
4:30 PM 73.4 °F - 44.6 °F 36% 29.86 in 6.2 mi West 4.6 mph - N/A   Unknown
5:00 PM 73.4 °F - 44.6 °F 36% 29.89 in 6.2 mi SW 8.1 mph - N/A   Unknown
5:30 PM 68.0 °F - 50.0 °F 52% 29.89 in 6.2 mi ESE 9.2 mph - N/A   Mostly Cloudy
6:00 PM 66.2 °F - 48.2 °F 52% 29.92 in 6.2 mi East 10.4 mph - N/A   Mostly Cloudy
6:30 PM 64.4 °F - 55.4 °F 73% 29.92 in 6.2 mi SE 12.7 mph - N/A   Mostly Cloudy
7:00 PM 64.4 °F - 51.8 °F 64% 29.95 in 6.2 mi South 10.4 mph - N/A   Partly Cloudy
7:30 PM 62.6 °F - 50.0 °F 63% 29.98 in 6.2 mi South 11.5 mph - N/A   Unknown
8:00 PM 59.0 °F - 51.8 °F 77% 29.98 in 6.2 mi South 8.1 mph - N/A   Partly Cloudy
8:30 PM 57.2 °F - 51.8 °F 82% 30.01 in 6.2 mi SSW 12.7 mph - N/A   Scattered Clouds
9:00 PM 55.4 °F - 51.8 °F 88% 30.01 in 6.2 mi SW 11.5 mph - N/A   Unknown
9:30 PM 55.4 °F - 51.8 °F 88% 30.04 in 6.2 mi SW 9.2 mph - N/A   Partly Cloudy
10:00 PM 55.4 °F - 51.8 °F 88% 30.04 in 6.2 mi SW 8.1 mph - N/A   Mostly Cloudy
10:30 PM 55.4 °F - 50.0 °F 82% 30.06 in 6.2 mi SW 11.5 mph - N/A   Mostly Cloudy
11:00 PM 55.4 °F - 51.8 °F 88% 30.06 in 6.2 mi SW 11.5 mph - N/A   Mostly Cloudy
11:30 PM 55.4 °F - 50.0 °F 82% 30.06 in 6.2 mi SW 13.8 mph - N/A   Overcast